This demonstration page uses our WeatherBlox Daily Observations layout. Learn more.

Hourly Observations for March 3, 2018

Temp ( °F °C ) Dew Point ( °F °C ) Humidity (%) Winds ( mph kmh ) Pressure ( in mb ) Visibility ( mi km ) Precip ( " mm )
12:15 am 00:15 Clear 44 6.6 28 -2 55 55 SSE 15 24 29.97 1015 10 16.0934 0 0
12:35 am 00:35 Clear 44 6.6 28 -2 55 55 SSE 13 20 29.97 1015 10 16.0934 0 0
12:55 am 00:55 Clear 43 6.3 29 -1.9 56 56 SSE 16 26 29.94 1014 10 16.0934 0 0
1:15 am 01:15 Clear 44 6.5 29 -1.9 55 55 SSE 15 24 29.97 1015 10 16.0934 0 0
1:35 am 01:35 Clear 44 6.6 29 -1.7 56 56 SSE 16 26 29.94 1014 10 16.0934 0 0
1:55 am 01:55 Clear 44 6.5 29 -1.7 56 56 SSE 15 24 29.94 1014 10 16.0934 0 0
2:15 am 02:15 Clear 44 6.5 29 -1.6 57 57 SSE 14 22 29.94 1014 10 16.0934 0 0
2:35 am 02:35 Clear 43 6 29 -1.5 59 59 SSE 15 24 29.94 1014 10 16.0934 0 0
2:55 am 02:55 Clear 42 5.6 30 -1.2 62 62 SSE 16 26 29.94 1014 10 16.0934 0 0
3:15 am 03:15 Clear 41 5 30 -1.1 65 65 SSE 13 20 29.97 1015 10 16.0934 0 0
3:35 am 03:35 Clear 41 5.1 31 -0.7 66 66 SSE 15 24 29.94 1014 10 16.0934 0 0
3:55 am 03:55 Clear 41 5 31 -0.5 68 68 SSE 13 20 29.91 1013 10 16.0934 0 0
4:15 am 04:15 Clear 40 4.6 31 -0.5 70 70 SSE 12 19 29.94 1014 10 16.0934 0 0
4:35 am 04:35 Clear 40 4.6 32 -0.2 71 71 SSE 15 24 29.94 1014 10 16.0934 0 0
4:55 am 04:55 Clear 39 3.8 31 -0.3 75 75 SSE 13 20 29.94 1014 10 16.0934 0 0
5:15 am 05:15 Clear 39 3.7 32 -0.1 76 76 SSE 13 20 29.94 1014 10 16.0934 0 0
5:35 am 05:35 Clear 38 3.6 32 -0.1 77 77 SSE 13 20 29.94 1014 10 16.0934 0 0
5:55 am 05:55 Clear 37 2.7 32 -0.2 81 81 SSE 10 17 29.94 1014 10 16.0934 0 0
6:15 am 06:15 Clear 37 2.5 32 -0.2 83 83 SSE 14 22 29.94 1014 10 16.0934 0 0
6:35 am 06:35 Clear 37 2.5 32 0 84 84 SSE 10 17 29.94 1014 10 16.0934 0 0
6:55 am 06:55 Clear 36 2.2 32 -0.1 85 85 SSE 10 17 29.94 1014 10 16.0934 0 0
7:15 am 07:15 Sunny 35 1.8 32 -0.2 87 87 SSE 8 13 30 1016 10 16.0934 0 0
7:35 am 07:35 Sunny 35 1.8 31 -0.3 86 86 S 8 13 30 1016 10 16.0934 0 0
7:55 am 07:55 Sunny 37 2.6 32 0.1 84 84 SSE 8 13 29.97 1015 10 16.0934 0 0
8:15 am 08:15 Sunny 40 4.3 34 1 79 79 S 14 22 29.97 1015 10 16.0934 0 0
8:35 am 08:35 Sunny 42 5.4 34 1.2 75 75 S 15 24 29.94 1014 10 16.0934 0 0
8:55 am 08:55 Sunny 43 6.1 34 1.3 72 72 S 13 20 29.94 1014 10 16.0934 0 0
9:15 am 09:15 Sunny 45 7.3 35 1.4 66 66 S 12 19 29.94 1014 10 16.0934 0 0
9:35 am 09:35 Sunny 47 8.5 34 0.9 59 59 S 16 26 29.91 1013 10 16.0934 0 0
9:55 am 09:55 Sunny 49 9.2 33 0.5 55 55 S 15 24 29.91 1013 10 16.0934 0 0
10:15 am 10:15 Sunny 50 10 32 0.2 51 51 S 15 24 29.91 1013 10 16.0934 0 0
10:35 am 10:35 Partly Cloudy 52 10.9 32 -0.1 47 47 S 14 22 29.91 1013 10 16.0934 0 0
10:55 am 10:55 Sunny 53 11.7 31 -0.3 44 44 S 14 22 29.88 1012 10 16.0934 0 0
11:15 am 11:15 Sunny 55 12.7 32 -0.1 42 42 S 14 22 29.88 1012 10 16.0934 0 0
11:35 am 11:35 Sunny 57 13.7 31 -0.4 38 38 S 10 17 29.88 1012 10 16.0934 0 0
11:55 am 11:55 Sunny 58 14.7 31 -0.6 35 35 S 14 22 29.88 1012 10 16.0934 0 0
12:15 pm 12:15 Sunny 60 15.4 31 -0.4 34 34 S 15 24 29.85 1011 10 16.0934 0 0
12:35 pm 12:35 Sunny 62 16.6 32 0 33 33 S 16 26 29.85 1011 10 16.0934 0 0
12:55 pm 12:55 Sunny 63 17.1 32 -0.1 31 31 S 14 22 29.83 1010 10 16.0934 0 0
1:15 pm 13:15 Sunny 65 18.1 31 -0.3 29 29 S 17 28 29.83 1010 10 16.0934 0 0
1:35 pm 13:35 Sunny 66 18.8 32 -0.2 28 28 S 16 26 29.8 1009 10 16.0934 0 0
1:55 pm 13:55 Sunny 67 19.7 32 0 27 27 SSW 16 26 29.77 1008 10 16.0934 0 0
2:15 pm 14:15 Sunny 69 20.4 32 -0.1 25 25 S 13 20 29.77 1008 10 16.0934 0 0
2:35 pm 14:35 Sunny 70 20.9 32 0.1 25 25 S 17 28 29.77 1008 10 16.0934 0 0
2:55 pm 14:55 Sunny 71 21.5 33 0.5 25 25 S 15 24 29.77 1008 10 16.0934 0 0
3:15 pm 15:15 Sunny 71 21.5 34 1.2 26 26 S 18 30 29.71 1006 10 16.0934 0 0
3:35 pm 15:35 Sunny 71 21.6 35 1.6 27 27 S 15 24 29.71 1006 10 16.0934 0 0
3:55 pm 15:55 Sunny 71 21.9 35 1.9 27 27 S 17 28 29.71 1006 10 16.0934 0 0
4:15 pm 16:15 Sunny 72 22.3 36 2.2 27 27 SSE 15 24 29.71 1006 10 16.0934 0 0
4:35 pm 16:35 Sunny 73 22.6 35 1.8 25 25 SSE 16 26 29.71 1006 10 16.0934 0 0
4:55 pm 16:55 Sunny 73 22.7 35 1.6 25 25 SSE 13 20 29.71 1006 10 16.0934 0 0
5:15 pm 17:15 Sunny 72 22.2 37 2.6 28 28 SSE 15 24 29.71 1006 10 16.0934 0 0
5:35 pm 17:35 Sunny 71 21.5 37 2.6 29 29 SSE 10 17 29.71 1006 10 16.0934 0 0
5:55 pm 17:55 Sunny 68 20.1 37 2.5 31 31 SSE 10 17 29.74 1007 10 16.0934 0 0
6:15 pm 18:15 Sunny 64 17.9 36 2 35 35 SE 10 17 29.74 1007 10 16.0934 0 0
6:35 pm 18:35 Clear 60 15.6 34 1 37 37 SE 10 17 29.77 1008 10 16.0934 0 0
6:55 pm 18:55 Clear 54 12.3 32 0 43 43 SE 9 15 29.8 1009 10 16.0934 0 0
7:15 pm 19:15 Clear 56 13.2 34 1.2 44 44 SE 13 20 29.8 1009 10 16.0934 0 0
7:35 pm 19:35 Clear 58 14.2 40 4.6 53 53 SE 14 22 29.77 1008 10 16.0934 0 0
7:55 pm 19:55 Clear 58 14.5 43 5.9 57 57 SE 14 22 29.77 1008 10 16.0934 0 0
8:15 pm 20:15 Clear 58 14.7 44 6.7 59 59 SE 16 26 29.77 1008 10 16.0934 0 0
8:35 pm 20:35 Clear 58 14.2 45 7.2 63 63 SE 14 22 29.77 1008 10 16.0934 0 0
8:55 pm 20:55 Clear 57 14.1 46 7.7 66 66 SE 16 26 29.83 1010 10 16.0934 0 0
9:15 pm 21:15 Clear 55 12.8 45 7.3 69 69 SE 14 22 29.83 1010 10 16.0934 0 0
9:35 pm 21:35 Clear 55 12.7 46 7.7 72 72 SE 16 26 29.83 1010 10 16.0934 0 0
9:55 pm 21:55 Clear 53 11.9 46 7.9 77 77 SE 16 26 29.83 1010 10 16.0934 0 0
10:15 pm 22:15 Clear 55 13 48 8.9 76 76 SSE 17 28 29.83 1010 10 16.0934 0 0
10:35 pm 22:35 Clear 55 12.9 48 9 77 77 SSE 18 30 29.83 1010 10 16.0934 0 0
10:55 pm 22:55 Clear 55 12.7 48 9.1 79 79 SSE 18 30 29.83 1010 10 16.0934 0 0
11:15 pm 23:15 Clear 55 12.5 48 9.1 80 80 SSE 20 31 29.83 1010 10 16.0934 0 0
11:35 pm 23:35 Clear 54 12 48 9 82 82 SSE 18 30 29.83 1010 10 16.0934 0 0
11:55 pm 23:55 Clear 54 12 48 9.1 83 83 SSE 21 33 29.8 1009 10 16.0934 0 0

Powered by AerisWeather